Time,TemperatureF,DewpointF,PressureIn,WindDirection,WindDirectionDegrees,WindSpeedMPH,WindSpeedGustMPH,Humidity,HourlyPrecipIn,Conditions,Clouds,dailyrainin,SoftwareType,DateUTC
2013-10-17 00:03:00,43.9,18.6,30.11,South,180,0.0,0.0,36,0.00,CLR,,0.00,WeatherDisplay:10.37,2013-10-17 07:03:00,
2013-10-17 00:08:00,43.9,18.6,30.11,South,180,0.0,0.0,36,0.00,CLR,,0.00,WeatherDisplay:10.37,2013-10-17 07:08:00,
2013-10-17 00:13:00,43.9,18.6,30.11,South,180,0.0,0.0,36,0.00,CLR,,0.00,WeatherDisplay:10.37,2013-10-17 07:13:00,
2013-10-17 00:18:00,43.7,18.5,30.11,South,180,1.2,0.0,36,0.00,CLR,,0.00,WeatherDisplay:10.37,2013-10-17 07:18:00,
2013-10-17 00:23:00,43.7,18.5,30.11,West,270,1.2,0.0,36,0.00,CLR,,0.00,WeatherDisplay:10.37,2013-10-17 07:23:00,
2013-10-17 00:28:00,44.1,18.8,30.11,West,270,0.0,0.0,36,0.00,CLR,,0.00,WeatherDisplay:10.37,2013-10-17 07:28:00,
2013-10-17 00:33:00,44.4,19.1,30.11,West,270,1.2,0.0,36,0.00,CLR,,0.00,WeatherDisplay:10.37,2013-10-17 07:33:00,
2013-10-17 00:38:00,44.6,19.3,30.11,West,270,1.2,0.0,36,0.00,CLR,,0.00,WeatherDisplay:10.37,2013-10-17 07:38:00,
2013-10-17 00:43:00,45.1,19.7,30.11,West,270,0.0,0.0,36,0.00,CLR,,0.00,WeatherDisplay:10.37,2013-10-17 07:43:00,
2013-10-17 00:48:00,45.1,19.7,30.11,South,180,1.2,1.2,36,0.00,CLR,,0.00,WeatherDisplay:10.37,2013-10-17 07:48:00,
2013-10-17 00:53:00,44.8,19.4,30.11,South,180,1.2,0.0,36,0.00,CLR,,0.00,WeatherDisplay:10.37,2013-10-17 07:53:00,
2013-10-17 00:58:00,44.8,19.4,30.11,South,180,0.0,0.0,36,0.00,CLR,,0.00,WeatherDisplay:10.37,2013-10-17 07:58:00,
2013-10-17 01:03:00,45.0,19.6,30.11,West,270,0.0,0.0,36,0.00,CLR,,0.00,WeatherDisplay:10.37,2013-10-17 08:03:00,
2013-10-17 01:08:00,45.1,19.7,30.11,SW,225,1.2,0.0,36,0.00,CLR,,0.00,WeatherDisplay:10.37,2013-10-17 08:08:00,
2013-10-17 01:09:00,45.3,19.9,30.11,SW,225,1.2,1.2,36,0.00,CLR,,0.00,WeatherDisplay:10.37,2013-10-17 08:09:00,
2013-10-17 01:14:00,45.7,20.2,30.11,South,180,1.2,0.0,36,0.00,CLR,,0.00,WeatherDisplay:10.37,2013-10-17 08:14:00,
2013-10-17 01:19:00,45.7,20.2,30.11,South,180,0.0,0.0,36,0.00,CLR,,0.00,WeatherDisplay:10.37,2013-10-17 08:19:00,
2013-10-17 01:24:00,46.0,20.5,30.11,South,180,0.0,0.0,36,0.00,CLR,,0.00,WeatherDisplay:10.37,2013-10-17 08:24:00,
2013-10-17 01:29:00,46.2,20.7,30.11,South,180,0.0,0.0,36,0.00,CLR,,0.00,WeatherDisplay:10.37,2013-10-17 08:29:00,
2013-10-17 01:34:00,46.2,20.7,30.11,South,180,0.0,0.0,36,0.00,CLR,,0.00,WeatherDisplay:10.37,2013-10-17 08:34:00,
2013-10-17 01:39:00,46.2,20.7,30.11,South,180,0.0,0.0,36,0.00,CLR,,0.00,WeatherDisplay:10.37,2013-10-17 08:39:00,
2013-10-17 01:44:00,46.4,20.9,30.11,SW,225,0.0,0.0,36,0.00,CLR,,0.00,WeatherDisplay:10.37,2013-10-17 08:44:00,
2013-10-17 01:49:00,46.6,21.0,30.11,SW,225,0.0,0.0,36,0.00,CLR,,0.00,WeatherDisplay:10.37,2013-10-17 08:49:00,
2013-10-17 01:54:00,46.8,21.2,30.10,South,180,0.0,0.0,36,0.00,CLR,,0.00,WeatherDisplay:10.37,2013-10-17 08:54:00,
2013-10-17 01:59:00,46.9,21.3,30.10,East,90,0.0,0.0,36,0.00,CLR,,0.00,WeatherDisplay:10.37,2013-10-17 08:59:00,
2013-10-17 02:04:00,46.9,21.3,30.10,NE,45,0.0,0.0,36,0.00,CLR,,0.00,WeatherDisplay:10.37,2013-10-17 09:04:00,
2013-10-17 02:09:00,47.1,21.5,30.11,NE,45,0.0,0.0,36,0.00,CLR,,0.00,WeatherDisplay:10.37,2013-10-17 09:09:00,
2013-10-17 02:14:00,47.3,21.7,30.11,West,270,0.0,0.0,36,0.00,CLR,,0.00,WeatherDisplay:10.37,2013-10-17 09:14:00,
2013-10-17 02:19:00,47.3,21.7,30.11,West,270,0.0,0.0,36,0.00,CLR,,0.00,WeatherDisplay:10.37,2013-10-17 09:19:00,
2013-10-17 02:24:00,47.3,21.7,30.10,West,270,0.0,0.0,36,0.00,CLR,,0.00,WeatherDisplay:10.37,2013-10-17 09:24:00,
2013-10-17 02:29:00,47.3,21.7,30.11,SW,225,1.2,0.0,36,0.00,CLR,,0.00,WeatherDisplay:10.37,2013-10-17 09:29:00,
2013-10-17 02:34:00,47.5,21.8,30.11,SW,225,0.0,0.0,36,0.00,CLR,,0.00,WeatherDisplay:10.37,2013-10-17 09:34:00,
2013-10-17 02:39:00,47.5,21.8,30.11,SW,225,1.2,0.0,36,0.00,CLR,,0.00,WeatherDisplay:10.37,2013-10-17 09:39:00,
2013-10-17 02:44:00,47.7,22.0,30.11,SW,225,0.0,0.0,36,0.00,CLR,,0.00,WeatherDisplay:10.37,2013-10-17 09:44:00,
2013-10-17 02:49:00,47.8,22.1,30.11,SW,225,0.0,0.0,36,0.00,CLR,,0.00,WeatherDisplay:10.37,2013-10-17 09:49:00,
2013-10-17 02:54:00,47.8,22.1,30.11,SW,225,0.0,0.0,36,0.00,CLR,,0.00,WeatherDisplay:10.37,2013-10-17 09:54:00,
2013-10-17 02:59:00,48.0,22.3,30.11,SE,135,1.2,0.0,36,0.00,CLR,,0.00,WeatherDisplay:10.37,2013-10-17 09:59:00,
2013-10-17 03:04:00,48.0,22.3,30.11,SE,135,1.2,0.0,36,0.00,CLR,,0.00,WeatherDisplay:10.37,2013-10-17 10:04:00,
2013-10-17 03:09:00,48.0,22.3,30.11,NE,45,1.2,0.0,36,0.00,CLR,,0.00,WeatherDisplay:10.37,2013-10-17 10:09:00,
2013-10-17 03:14:00,48.2,22.5,30.10,NE,45,0.0,0.0,36,0.00,CLR,,0.00,WeatherDisplay:10.37,2013-10-17 10:14:00,
2013-10-17 03:19:00,48.2,22.5,30.10,NW,315,1.2,0.0,36,0.00,CLR,,0.00,WeatherDisplay:10.37,2013-10-17 10:19:00,
2013-10-17 03:24:00,48.6,-5.7,30.11,NW,315,0.0,0.0,10,0.00,CLR,,0.00,WeatherDisplay:10.37,2013-10-17 10:24:00,
2013-10-17 03:29:00,48.6,-5.7,30.10,NW,315,0.0,0.0,10,0.00,CLR,,0.00,WeatherDisplay:10.37,2013-10-17 10:29:00,
2013-10-17 03:34:00,48.7,-5.5,30.10,NW,315,0.0,0.0,10,0.00,CLR,,0.00,WeatherDisplay:10.37,2013-10-17 10:34:00,
2013-10-17 03:39:00,48.9,-3.4,30.11,SW,225,1.2,0.0,11,0.00,CLR,,0.00,WeatherDisplay:10.37,2013-10-17 10:39:00,
2013-10-17 03:44:00,48.9,-3.4,30.11,SW,225,0.0,0.0,11,0.00,CLR,,0.00,WeatherDisplay:10.37,2013-10-17 10:44:00,
2013-10-17 03:49:00,49.1,-5.3,30.11,SW,225,0.0,0.0,10,0.00,CLR,,0.00,WeatherDisplay:10.37,2013-10-17 10:49:00,
2013-10-17 03:54:00,49.1,-3.3,30.11,SW,225,0.0,0.0,11,0.00,CLR,,0.00,WeatherDisplay:10.37,2013-10-17 10:54:00,
2013-10-17 03:59:00,49.3,-3.1,30.11,North,0,0.0,0.0,11,0.00,CLR,,0.00,WeatherDisplay:10.37,2013-10-17 10:59:00,
2013-10-17 04:04:00,49.3,-3.1,30.11,North,0,0.0,0.0,11,0.00,CLR,,0.00,WeatherDisplay:10.37,2013-10-17 11:04:00,
2013-10-17 04:09:00,49.5,-1.2,30.10,North,0,0.0,0.0,12,0.00,CLR,,0.00,WeatherDisplay:10.37,2013-10-17 11:09:00,
2013-10-17 04:14:00,49.5,-1.2,30.10,North,0,0.0,0.0,12,0.00,CLR,,0.00,WeatherDisplay:10.37,2013-10-17 11:14:00,
2013-10-17 04:19:00,49.5,-1.2,30.10,North,0,0.0,0.0,12,0.00,CLR,,0.00,WeatherDisplay:10.37,2013-10-17 11:19:00,
2013-10-17 04:24:00,49.6,-1.0,30.10,North,0,0.0,0.0,12,0.00,CLR,,0.00,WeatherDisplay:10.37,2013-10-17 11:24:00,
2013-10-17 04:29:00,49.6,-1.0,30.11,SW,225,0.0,0.0,12,0.00,CLR,,0.00,WeatherDisplay:10.37,2013-10-17 11:29:00,
2013-10-17 04:34:00,49.6,-1.0,30.10,SW,225,0.0,0.0,12,0.00,CLR,,0.00,WeatherDisplay:10.37,2013-10-17 11:34:00,
2013-10-17 04:39:00,49.8,-0.9,30.10,NE,45,1.2,0.0,12,0.00,CLR,,0.00,WeatherDisplay:10.37,2013-10-17 11:39:00,
2013-10-17 04:44:00,49.8,-0.9,30.11,East,90,1.2,0.0,12,0.00,CLR,,0.00,WeatherDisplay:10.37,2013-10-17 11:44:00,
2013-10-17 04:49:00,49.8,0.8,30.10,North,0,1.2,0.0,13,0.00,CLR,,0.00,WeatherDisplay:10.37,2013-10-17 11:49:00,
2013-10-17 04:54:00,49.8,-0.9,30.11,East,90,1.2,0.0,12,0.00,CLR,,0.00,WeatherDisplay:10.37,2013-10-17 11:54:00,
2013-10-17 04:59:00,49.6,-1.0,30.11,East,90,1.2,0.0,12,0.00,CLR,,0.00,WeatherDisplay:10.37,2013-10-17 11:59:00,
2013-10-17 05:04:00,50.0,-0.7,30.11,SW,225,0.0,0.0,12,0.00,CLR,,0.00,WeatherDisplay:10.37,2013-10-17 12:04:00,
2013-10-17 05:09:00,49.6,-1.0,30.11,NE,45,0.0,0.0,12,0.00,CLR,,0.00,WeatherDisplay:10.37,2013-10-17 12:09:00,
2013-10-17 05:14:00,49.5,-1.2,30.11,North,0,1.2,0.0,12,0.00,CLR,,0.00,WeatherDisplay:10.37,2013-10-17 12:14:00,
2013-10-17 05:19:00,49.5,-1.2,30.10,North,0,0.0,0.0,12,0.00,CLR,,0.00,WeatherDisplay:10.37,2013-10-17 12:19:00,
2013-10-17 05:24:00,49.5,-1.2,30.11,NE,45,1.2,0.0,12,0.00,CLR,,0.00,WeatherDisplay:10.37,2013-10-17 12:24:00,
2013-10-17 05:29:00,49.3,-1.3,30.11,South,180,1.2,0.0,12,0.00,CLR,,0.00,WeatherDisplay:10.37,2013-10-17 12:29:00,
2013-10-17 05:34:00,49.1,-1.4,30.11,East,90,1.2,0.0,12,0.00,CLR,,0.00,WeatherDisplay:10.37,2013-10-17 12:34:00,
2013-10-17 05:39:00,49.1,-3.3,30.10,South,180,0.0,0.0,11,0.00,CLR,,0.00,WeatherDisplay:10.37,2013-10-17 12:39:00,
2013-10-17 05:44:00,49.1,-1.4,30.10,South,180,1.2,0.0,12,0.00,CLR,,0.00,WeatherDisplay:10.37,2013-10-17 12:44:00,
2013-10-17 05:49:00,49.1,-1.4,30.11,NE,45,1.2,0.0,12,0.00,CLR,,0.00,WeatherDisplay:10.37,2013-10-17 12:49:00,
2013-10-17 05:54:00,49.1,-1.4,30.11,SE,135,1.2,0.0,12,0.00,CLR,,0.00,WeatherDisplay:10.37,2013-10-17 12:54:00,
2013-10-17 05:59:00,49.3,0.4,30.11,SE,135,1.2,0.0,13,0.00,CLR,,0.00,WeatherDisplay:10.37,2013-10-17 12:59:00,
2013-10-17 06:04:00,49.3,0.4,30.11,South,180,2.3,2.3,13,0.00,CLR,,0.00,WeatherDisplay:10.37,2013-10-17 13:04:00,
2013-10-17 06:09:00,49.1,0.3,30.11,South,180,2.3,2.3,13,0.00,CLR,,0.00,WeatherDisplay:10.37,2013-10-17 13:09:00,
2013-10-17 06:14:00,49.1,-1.4,30.11,South,180,2.3,2.3,12,0.00,CLR,,0.00,WeatherDisplay:10.37,2013-10-17 13:14:00,
2013-10-17 06:19:00,48.9,-1.6,30.11,SE,135,1.2,0.0,12,0.00,CLR,,0.00,WeatherDisplay:10.37,2013-10-17 13:19:00,
2013-10-17 06:24:00,48.9,0.1,30.11,SE,135,0.0,0.0,13,0.00,CLR,,0.00,WeatherDisplay:10.37,2013-10-17 13:24:00,
2013-10-17 06:29:00,48.9,0.1,30.11,South,180,1.2,0.0,13,0.00,CLR,,0.00,WeatherDisplay:10.37,2013-10-17 13:29:00,
2013-10-17 06:34:00,48.9,0.1,30.12,South,180,1.2,0.0,13,0.00,CLR,,0.00,WeatherDisplay:10.37,2013-10-17 13:34:00,
2013-10-17 06:39:00,48.9,0.1,30.11,South,180,0.0,0.0,13,0.00,CLR,,0.00,WeatherDisplay:10.37,2013-10-17 13:39:00,
2013-10-17 06:44:00,48.9,0.1,30.11,South,180,0.0,0.0,13,0.00,CLR,,0.00,WeatherDisplay:10.37,2013-10-17 13:44:00,
2013-10-17 06:49:00,48.9,0.1,30.11,South,180,0.0,0.0,13,0.00,CLR,,0.00,WeatherDisplay:10.37,2013-10-17 13:49:00,
2013-10-17 06:54:00,48.9,0.1,30.12,South,180,1.2,0.0,13,0.00,CLR,,0.00,WeatherDisplay:10.37,2013-10-17 13:54:00,
2013-10-17 06:59:00,48.9,0.1,30.12,SE,135,0.0,0.0,13,0.00,CLR,,0.00,WeatherDisplay:10.37,2013-10-17 13:59:00,
2013-10-17 07:04:00,48.7,0.0,30.11,SE,135,0.0,0.0,13,0.00,CLR,,0.00,WeatherDisplay:10.37,2013-10-17 14:04:00,
2013-10-17 07:09:00,48.7,0.0,30.12,SE,135,0.0,0.0,13,0.00,CLR,,0.00,WeatherDisplay:10.37,2013-10-17 14:09:00,
2013-10-17 07:14:00,48.6,-0.2,30.12,SE,135,1.2,0.0,13,0.00,CLR,,0.00,WeatherDisplay:10.37,2013-10-17 14:14:00,
2013-10-17 07:19:00,48.6,-0.2,30.12,South,180,0.0,0.0,13,0.00,CLR,,0.00,WeatherDisplay:10.37,2013-10-17 14:19:00,
2013-10-17 07:24:00,48.6,-0.2,30.12,NE,45,1.2,0.0,13,0.00,CLR,,0.00,WeatherDisplay:10.37,2013-10-17 14:24:00,
2013-10-17 07:29:00,48.4,-0.3,30.12,East,90,0.0,0.0,13,0.00,CLR,,0.00,WeatherDisplay:10.37,2013-10-17 14:29:00,
2013-10-17 07:34:00,48.4,-0.3,30.12,NE,45,1.2,0.0,13,0.00,CLR,,0.00,WeatherDisplay:10.37,2013-10-17 14:34:00,
2013-10-17 07:39:00,48.4,-0.3,30.12,NE,45,0.0,0.0,13,0.00,CLR,,0.00,WeatherDisplay:10.37,2013-10-17 14:39:00,
2013-10-17 07:44:00,48.4,-0.3,30.12,NE,45,0.0,0.0,13,0.00,CLR,,0.00,WeatherDisplay:10.37,2013-10-17 14:44:00,
2013-10-17 07:49:00,48.4,1.3,30.12,SE,135,1.2,1.2,14,0.00,CLR,,0.00,WeatherDisplay:10.37,2013-10-17 14:49:00,
2013-10-17 07:54:00,48.4,1.3,30.12,South,180,1.2,1.2,14,0.00,CLR,,0.00,WeatherDisplay:10.37,2013-10-17 14:54:00,
2013-10-17 07:59:00,48.4,1.3,30.12,South,180,1.2,0.0,14,0.00,CLR,,0.00,WeatherDisplay:10.37,2013-10-17 14:59:00,
2013-10-17 08:04:00,48.4,1.3,30.12,South,180,1.2,0.0,14,0.00,CLR,,0.00,WeatherDisplay:10.37,2013-10-17 15:04:00,
2013-10-17 08:09:00,48.4,1.3,30.12,South,180,1.2,0.0,14,0.00,CLR,,0.00,WeatherDisplay:10.37,2013-10-17 15:09:00,
2013-10-17 08:14:00,48.4,1.3,30.12,South,180,1.2,0.0,14,0.00,CLR,,0.00,WeatherDisplay:10.37,2013-10-17 15:14:00,
2013-10-17 08:19:00,48.4,1.3,30.12,South,180,1.2,1.2,14,0.00,CLR,,0.00,WeatherDisplay:10.37,2013-10-17 15:19:00,
2013-10-17 08:24:00,48.4,1.3,30.12,North,0,1.2,0.0,14,0.00,CLR,,0.00,WeatherDisplay:10.37,2013-10-17 15:24:00,
2013-10-17 08:29:00,48.6,1.4,30.13,NE,45,0.0,0.0,14,0.00,CLR,,0.00,WeatherDisplay:10.37,2013-10-17 15:29:00,
2013-10-17 08:34:00,48.7,1.6,30.13,NE,45,1.2,0.0,14,0.00,CLR,,0.00,WeatherDisplay:10.37,2013-10-17 15:34:00,
2013-10-17 08:39:00,48.7,1.6,30.13,NE,45,0.0,0.0,14,0.00,CLR,,0.00,WeatherDisplay:10.37,2013-10-17 15:39:00,
2013-10-17 08:44:00,48.6,1.4,30.12,NE,45,1.2,0.0,14,0.00,CLR,,0.00,WeatherDisplay:10.37,2013-10-17 15:44:00,
2013-10-17 08:49:00,48.6,1.4,30.12,South,180,1.2,0.0,14,0.00,CLR,,0.00,WeatherDisplay:10.37,2013-10-17 15:49:00,
2013-10-17 08:54:00,48.7,1.6,30.13,South,180,1.2,0.0,14,0.00,CLR,,0.00,WeatherDisplay:10.37,2013-10-17 15:54:00,
2013-10-17 08:59:00,48.9,1.7,30.13,South,180,1.2,0.0,14,0.00,CLR,,0.00,WeatherDisplay:10.37,2013-10-17 15:59:00,
2013-10-17 09:04:00,48.9,3.2,30.13,NW,315,1.2,0.0,15,0.00,CLR,,0.00,WeatherDisplay:10.37,2013-10-17 16:04:00,
2013-10-17 09:09:00,49.1,3.3,30.13,West,270,0.0,0.0,15,0.00,CLR,,0.00,WeatherDisplay:10.37,2013-10-17 16:09:00,
2013-10-17 09:14:00,49.6,5.2,30.13,SW,225,0.0,0.0,16,0.00,CLR,,0.00,WeatherDisplay:10.37,2013-10-17 16:14:00,
2013-10-17 09:22:00,50.2,5.6,30.12,North,0,1.2,0.0,16,0.01,CLR,,0.01,WeatherDisplay:10.37,2013-10-17 16:22:00,
2013-10-17 09:27:00,50.5,7.3,30.12,East,90,1.6,1.6,17,0.01,CLR,,0.01,WeatherDisplay:10.37,2013-10-17 16:27:00,
2013-10-17 09:32:00,50.5,4.5,30.12,SE,135,1.2,0.0,15,0.01,CLR,,0.01,WeatherDisplay:10.37,2013-10-17 16:32:00,
2013-10-17 09:37:00,50.9,6.2,30.12,North,0,0.0,0.0,16,0.01,CLR,,0.01,WeatherDisplay:10.37,2013-10-17 16:37:00,
2013-10-17 09:42:00,51.3,6.5,30.12,North,0,2.3,0.0,16,0.01,CLR,,0.01,WeatherDisplay:10.37,2013-10-17 16:42:00,
2013-10-17 09:47:00,51.4,5.2,30.13,NE,45,1.2,0.0,15,0.01,CLR,,0.01,WeatherDisplay:10.37,2013-10-17 16:47:00,
2013-10-17 09:52:00,51.6,3.9,30.12,NW,315,3.5,3.5,14,0.01,CLR,,0.01,WeatherDisplay:10.37,2013-10-17 16:52:00,
2013-10-17 09:57:00,52.0,2.6,30.12,NE,45,1.2,1.2,13,0.01,CLR,,0.01,WeatherDisplay:10.37,2013-10-17 16:57:00,
2013-10-17 10:02:00,52.0,-3.0,30.12,North,0,2.3,2.3,10,0.01,CLR,,0.01,WeatherDisplay:10.37,2013-10-17 17:02:00,
2013-10-17 10:07:00,52.3,-2.8,30.12,NE,45,2.3,2.3,10,0.01,CLR,,0.01,WeatherDisplay:10.37,2013-10-17 17:07:00,
2013-10-17 10:12:00,52.5,-2.6,30.12,West,270,1.2,0.0,10,0.00,CLR,,0.01,WeatherDisplay:10.37,2013-10-17 17:12:00,
2013-10-17 10:17:00,53.1,-0.2,30.12,West,270,1.2,0.0,11,0.00,CLR,,0.01,WeatherDisplay:10.37,2013-10-17 17:17:00,
2013-10-17 10:22:00,54.3,2.7,30.12,SW,225,2.3,2.3,12,0.00,CLR,,0.01,WeatherDisplay:10.37,2013-10-17 17:22:00,
2013-10-17 10:27:00,54.5,2.8,30.12,SW,225,3.5,3.5,12,0.00,CLR,,0.01,WeatherDisplay:10.37,2013-10-17 17:27:00,
2013-10-17 10:32:00,54.7,3.0,30.12,North,0,2.3,2.3,12,0.00,CLR,,0.01,WeatherDisplay:10.37,2013-10-17 17:32:00,
2013-10-17 10:37:00,54.5,2.8,30.12,NE,45,1.2,1.2,12,0.00,CLR,,0.01,WeatherDisplay:10.37,2013-10-17 17:37:00,
2013-10-17 10:42:00,54.7,3.0,30.12,East,90,2.3,2.3,12,0.00,CLR,,0.01,WeatherDisplay:10.37,2013-10-17 17:42:00,
2013-10-17 10:47:00,54.3,2.7,30.12,NE,45,1.6,1.6,12,0.00,CLR,,0.01,WeatherDisplay:10.37,2013-10-17 17:47:00,
2013-10-17 10:52:00,55.0,3.3,30.13,North,0,1.2,1.2,12,0.00,CLR,,0.01,WeatherDisplay:10.37,2013-10-17 17:52:00,
2013-10-17 10:57:00,55.0,3.3,30.13,NE,45,2.3,2.3,12,0.00,CLR,,0.01,WeatherDisplay:10.37,2013-10-17 17:57:00,
2013-10-17 11:02:00,55.6,3.7,30.12,West,270,1.6,0.0,12,0.00,CLR,,0.01,WeatherDisplay:10.37,2013-10-17 18:02:00,
2013-10-17 11:07:00,57.4,5.1,30.12,South,180,2.3,2.3,12,0.00,CLR,,0.01,WeatherDisplay:10.37,2013-10-17 18:07:00,
2013-10-17 11:12:00,60.3,7.4,30.12,South,180,3.5,3.5,12,0.00,CLR,,0.01,WeatherDisplay:10.37,2013-10-17 18:12:00,
2013-10-17 11:17:00,62.4,9.1,30.12,SW,225,3.5,3.5,12,0.00,CLR,,0.01,WeatherDisplay:10.37,2013-10-17 18:17:00,
2013-10-17 11:22:00,64.4,10.6,30.11,South,180,3.5,3.5,12,0.00,CLR,,0.01,WeatherDisplay:10.37,2013-10-17 18:22:00,
2013-10-17 11:27:00,63.9,10.2,30.12,South,180,4.6,4.6,12,0.00,CLR,,0.01,WeatherDisplay:10.37,2013-10-17 18:27:00,
2013-10-17 11:32:00,64.9,11.0,30.11,South,180,3.5,3.5,12,0.00,CLR,,0.01,WeatherDisplay:10.37,2013-10-17 18:32:00,
2013-10-17 11:37:00,66.4,12.2,30.11,South,180,3.5,3.5,12,0.00,CLR,,0.01,WeatherDisplay:10.37,2013-10-17 18:37:00,
2013-10-17 11:42:00,67.3,12.9,30.11,South,180,3.5,3.5,12,0.00,CLR,,0.01,WeatherDisplay:10.37,2013-10-17 18:42:00,
2013-10-17 11:47:00,67.8,13.3,30.11,NE,45,3.5,3.5,12,0.00,CLR,,0.01,WeatherDisplay:10.37,2013-10-17 18:47:00,
2013-10-17 11:52:00,67.1,12.7,30.11,East,90,3.5,3.5,12,0.00,CLR,,0.01,WeatherDisplay:10.37,2013-10-17 18:52:00,
2013-10-17 11:57:00,68.2,13.6,30.11,East,90,2.3,3.1,12,0.00,CLR,,0.01,WeatherDisplay:10.37,2013-10-17 18:57:00,
2013-10-17 12:02:00,69.3,14.4,30.11,East,90,3.5,3.5,12,0.00,CLR,,0.01,WeatherDisplay:10.37,2013-10-17 19:02:00,
2013-10-17 12:07:00,69.8,14.8,30.11,NE,45,3.5,3.5,12,0.00,CLR,,0.01,WeatherDisplay:10.37,2013-10-17 19:07:00,
2013-10-17 12:12:00,68.7,14.0,30.10,SE,135,3.5,3.5,12,0.00,CLR,,0.01,WeatherDisplay:10.37,2013-10-17 19:12:00,
2013-10-17 12:17:00,70.3,15.3,30.10,South,180,3.5,3.5,12,0.00,CLR,,0.01,WeatherDisplay:10.37,2013-10-17 19:17:00,
2013-10-17 12:22:00,71.6,16.2,30.10,NE,45,3.5,3.5,12,0.00,CLR,,0.01,WeatherDisplay:10.37,2013-10-17 19:22:00,
2013-10-17 12:27:00,70.3,15.3,30.10,East,90,3.8,3.8,12,0.00,CLR,,0.01,WeatherDisplay:10.37,2013-10-17 19:27:00,
2013-10-17 12:31:00,70.7,15.5,30.10,NE,45,2.3,0.0,12,0.00,CLR,,0.01,WeatherDisplay:10.37,2013-10-17 19:31:00,
2013-10-17 12:36:00,71.1,15.8,30.09,West,270,3.5,0.0,12,0.00,CLR,,0.01,WeatherDisplay:10.37,2013-10-17 19:36:00,
2013-10-17 12:41:00,71.4,16.1,30.09,West,270,3.5,3.5,12,0.00,CLR,,0.01,WeatherDisplay:10.37,2013-10-17 19:41:00,
2013-10-17 12:46:00,71.6,16.2,30.09,NW,315,3.5,0.0,12,0.00,CLR,,0.01,WeatherDisplay:10.37,2013-10-17 19:46:00,
2013-10-17 12:51:00,70.0,15.0,30.09,NW,315,5.8,5.8,12,0.00,CLR,,0.01,WeatherDisplay:10.37,2013-10-17 19:51:00,
2013-10-17 12:56:00,68.5,13.9,30.09,NW,315,5.8,5.8,12,0.00,CLR,,0.01,WeatherDisplay:10.37,2013-10-17 19:56:00,
2013-10-17 13:01:00,66.9,12.6,30.09,North,0,5.8,5.8,12,0.00,CLR,,0.01,WeatherDisplay:10.37,2013-10-17 20:01:00,
2013-10-17 13:06:00,66.6,12.3,30.08,NW,315,8.1,8.1,12,0.00,CLR,,0.01,WeatherDisplay:10.37,2013-10-17 20:06:00,
2013-10-17 13:11:00,66.2,12.0,30.09,West,270,6.9,6.9,12,0.00,CLR,,0.01,WeatherDisplay:10.37,2013-10-17 20:11:00,
2013-10-17 13:16:00,64.6,10.7,30.08,West,270,8.1,8.1,12,0.00,CLR,,0.01,WeatherDisplay:10.37,2013-10-17 20:16:00,
2013-10-17 13:21:00,64.4,10.6,30.09,NW,315,6.9,6.9,12,0.00,CLR,,0.01,WeatherDisplay:10.37,2013-10-17 20:21:00,
2013-10-17 13:26:00,64.6,10.7,30.08,West,270,5.8,5.8,12,0.00,CLR,,0.01,WeatherDisplay:10.37,2013-10-17 20:26:00,
2013-10-17 13:31:00,64.8,10.9,30.08,NW,315,6.9,6.9,12,0.00,CLR,,0.01,WeatherDisplay:10.37,2013-10-17 20:31:00,
2013-10-17 13:36:00,66.0,11.9,30.08,NW,315,6.9,6.9,12,0.00,CLR,,0.01,WeatherDisplay:10.37,2013-10-17 20:36:00,
2013-10-17 13:41:00,67.5,13.0,30.08,NE,45,4.6,4.6,12,0.00,CLR,,0.01,WeatherDisplay:10.37,2013-10-17 20:41:00,
2013-10-17 13:46:00,69.3,14.4,30.08,NW,315,8.1,8.1,12,0.00,CLR,,0.01,WeatherDisplay:10.37,2013-10-17 20:46:00,
2013-10-17 13:51:00,70.5,15.4,30.08,West,270,3.5,3.8,12,0.00,CLR,,0.01,WeatherDisplay:10.37,2013-10-17 20:51:00,
2013-10-17 13:56:00,71.4,16.1,30.08,NW,315,9.2,9.2,12,0.00,CLR,,0.01,WeatherDisplay:10.37,2013-10-17 20:56:00,
2013-10-17 14:01:00,71.6,16.2,30.08,NW,315,6.9,6.9,12,0.00,CLR,,0.01,WeatherDisplay:10.37,2013-10-17 21:01:00,
2013-10-17 14:06:00,72.7,17.1,30.08,NW,315,5.8,5.8,12,0.00,CLR,,0.01,WeatherDisplay:10.37,2013-10-17 21:06:00,
2013-10-17 14:11:00,73.0,17.4,30.08,SE,135,5.8,0.0,12,0.00,CLR,,0.01,WeatherDisplay:10.37,2013-10-17 21:11:00,
2013-10-17 14:16:00,74.3,18.4,30.07,South,180,5.8,5.8,12,0.00,CLR,,0.01,WeatherDisplay:10.37,2013-10-17 21:16:00,
2013-10-17 14:21:00,74.1,18.2,30.07,NW,315,9.2,9.2,12,0.00,CLR,,0.01,WeatherDisplay:10.37,2013-10-17 21:21:00,
2013-10-17 14:26:00,73.8,17.9,30.07,NW,315,5.8,5.8,12,0.00,CLR,,0.01,WeatherDisplay:10.37,2013-10-17 21:26:00,
2013-10-17 14:31:00,74.3,18.4,30.07,NW,315,6.9,6.9,12,0.00,CLR,,0.01,WeatherDisplay:10.37,2013-10-17 21:31:00,
2013-10-17 14:36:00,74.5,18.5,30.07,NW,315,5.8,5.8,12,0.00,CLR,,0.01,WeatherDisplay:10.37,2013-10-17 21:36:00,
2013-10-17 14:41:00,75.2,19.1,30.07,NW,315,4.6,4.6,12,0.00,CLR,,0.01,WeatherDisplay:10.37,2013-10-17 21:41:00,
2013-10-17 14:46:00,75.4,19.2,30.06,SW,225,4.6,4.6,12,0.00,CLR,,0.01,WeatherDisplay:10.37,2013-10-17 21:46:00,
2013-10-17 14:51:00,75.7,19.5,30.06,North,0,5.8,0.0,12,0.00,CLR,,0.01,WeatherDisplay:10.37,2013-10-17 21:51:00,
2013-10-17 14:56:00,76.3,19.9,30.06,West,270,5.8,0.0,12,0.00,CLR,,0.01,WeatherDisplay:10.37,2013-10-17 21:56:00,
2013-10-17 15:01:00,75.6,19.3,30.06,NW,315,1.2,1.2,12,0.00,CLR,,0.01,WeatherDisplay:10.37,2013-10-17 22:01:00,
2013-10-17 15:06:00,75.4,19.2,30.06,East,90,3.5,3.5,12,0.00,CLR,,0.01,WeatherDisplay:10.37,2013-10-17 22:06:00,
2013-10-17 15:11:00,74.5,18.5,30.06,South,180,4.6,0.0,12,0.00,CLR,,0.01,WeatherDisplay:10.37,2013-10-17 22:11:00,
2013-10-17 15:16:00,73.9,18.1,30.06,West,270,9.2,9.2,12,0.00,CLR,,0.01,WeatherDisplay:10.37,2013-10-17 22:16:00,
2013-10-17 15:21:00,71.2,16.0,30.06,NE,45,5.8,5.8,12,0.00,CLR,,0.01,WeatherDisplay:10.37,2013-10-17 22:21:00,
2013-10-17 15:26:00,69.8,14.8,30.06,NW,315,4.6,4.6,12,0.00,CLR,,0.01,WeatherDisplay:10.37,2013-10-17 22:26:00,
2013-10-17 15:31:00,68.9,14.1,30.06,West,270,1.2,0.0,12,0.00,CLR,,0.01,WeatherDisplay:10.37,2013-10-17 22:31:00,
2013-10-17 15:36:00,68.5,13.9,30.06,North,0,5.8,5.8,12,0.00,CLR,,0.01,WeatherDisplay:10.37,2013-10-17 22:36:00,
2013-10-17 15:43:00,66.6,12.3,30.06,East,90,5.8,0.0,12,0.00,CLR,,0.00,WeatherDisplay:10.37,2013-10-17 22:43:00,
2013-10-17 15:48:00,65.8,11.7,30.06,West,270,5.8,5.8,12,0.00,RA,,0.00,WeatherDisplay:10.37,2013-10-17 22:48:00,
2013-10-17 15:53:00,65.3,11.3,30.06,NE,45,5.8,5.8,12,0.00,RA,,0.00,WeatherDisplay:10.37,2013-10-17 22:53:00,
2013-10-17 15:58:00,64.8,10.9,30.06,West,270,1.2,1.6,12,0.00,CLR,,0.00,WeatherDisplay:10.37,2013-10-17 22:58:00,
2013-10-17 16:03:00,64.2,10.5,30.06,NW,315,5.8,5.8,12,0.00,CLR,,0.00,WeatherDisplay:10.37,2013-10-17 23:03:00,
2013-10-17 16:08:00,63.5,9.9,30.06,NW,315,5.8,5.8,12,0.00,CLR,,0.00,WeatherDisplay:10.37,2013-10-17 23:08:00,
2013-10-17 16:13:00,63.3,9.8,30.06,West,270,8.1,8.1,12,0.00,CLR,,0.00,WeatherDisplay:10.37,2013-10-17 23:13:00,
2013-10-17 16:18:00,63.5,9.9,30.06,West,270,3.5,3.5,12,0.00,CLR,,0.00,WeatherDisplay:10.37,2013-10-17 23:18:00,
2013-10-17 16:23:00,63.0,9.5,30.06,NW,315,5.8,5.8,12,0.00,CLR,,0.00,WeatherDisplay:10.37,2013-10-17 23:23:00,
2013-10-17 16:28:00,63.0,63.0,30.06,NE,45,4.6,4.6,100,0.00,RA,,0.01,WeatherDisplay:10.37,2013-10-17 23:28:00,
2013-10-17 16:33:00,62.8,62.8,30.06,NE,45,8.1,8.1,100,0.00,CLR,,0.01,WeatherDisplay:10.37,2013-10-17 23:33:00,
2013-10-17 16:38:00,62.6,62.6,30.06,North,0,4.6,4.6,100,0.00,CLR,,0.01,WeatherDisplay:10.37,2013-10-17 23:38:00,
2013-10-17 16:43:00,62.6,62.6,30.06,West,270,3.5,3.5,100,0.01,CLR,,0.01,WeatherDisplay:10.37,2013-10-17 23:43:00,
2013-10-17 16:48:00,62.4,62.4,30.06,NW,315,4.6,4.6,100,0.01,CLR,,0.01,WeatherDisplay:10.37,2013-10-17 23:48:00,
2013-10-17 16:53:00,62.2,62.2,30.06,NE,45,3.5,3.5,100,0.01,CLR,,0.01,WeatherDisplay:10.37,2013-10-17 23:53:00,
2013-10-17 16:58:00,62.2,62.2,30.05,West,270,2.3,0.0,100,0.01,CLR,,0.01,WeatherDisplay:10.37,2013-10-17 23:58:00,
2013-10-17 17:03:00,62.1,62.1,30.06,NE,45,5.8,5.8,100,0.01,CLR,,0.01,WeatherDisplay:10.37,2013-10-18 00:03:00,
2013-10-17 17:08:00,62.1,62.1,30.05,East,90,3.5,3.5,100,0.01,CLR,,0.01,WeatherDisplay:10.37,2013-10-18 00:08:00,
2013-10-17 17:13:00,62.1,62.1,30.05,South,180,6.9,6.9,100,0.00,CLR,,0.01,WeatherDisplay:10.37,2013-10-18 00:13:00,
2013-10-17 17:18:00,61.9,61.9,30.05,SW,225,3.5,3.5,100,0.00,CLR,,0.01,WeatherDisplay:10.37,2013-10-18 00:18:00,
2013-10-17 17:23:00,61.7,61.7,30.05,West,270,3.5,3.5,100,0.00,CLR,,0.01,WeatherDisplay:10.37,2013-10-18 00:23:00,
2013-10-17 17:28:00,61.3,61.3,30.05,West,270,2.3,2.3,100,0.00,CLR,,0.01,WeatherDisplay:10.37,2013-10-18 00:28:00,
2013-10-17 17:33:00,61.2,61.2,30.05,SW,225,2.3,0.0,100,0.00,CLR,,0.01,WeatherDisplay:10.37,2013-10-18 00:33:00,
2013-10-17 17:38:00,61.0,61.0,30.06,NW,315,1.2,0.0,100,0.00,CLR,,0.01,WeatherDisplay:10.37,2013-10-18 00:38:00,
2013-10-17 17:43:00,60.8,60.8,30.06,South,180,3.5,0.0,100,0.00,CLR,,0.01,WeatherDisplay:10.37,2013-10-18 00:43:00,
2013-10-17 17:48:00,60.6,60.6,30.06,West,270,1.2,0.0,100,0.00,CLR,,0.01,WeatherDisplay:10.37,2013-10-18 00:48:00,
2013-10-17 17:53:00,60.3,60.3,30.06,SW,225,1.2,0.0,100,0.00,CLR,,0.01,WeatherDisplay:10.37,2013-10-18 00:53:00,
2013-10-17 17:58:00,60.1,60.1,30.05,SE,135,1.2,0.0,100,0.00,CLR,,0.01,WeatherDisplay:10.37,2013-10-18 00:58:00,
2013-10-17 18:03:00,59.5,59.5,30.06,South,180,1.2,0.0,100,0.00,CLR,,0.01,WeatherDisplay:10.37,2013-10-18 01:03:00,
2013-10-17 18:08:00,58.8,58.8,30.06,South,180,2.3,0.0,100,0.00,CLR,,0.01,WeatherDisplay:10.37,2013-10-18 01:08:00,
2013-10-17 18:13:00,58.1,58.1,30.06,SSW,202,2.3,2.3,100,0.00,CLR,,0.01,WeatherDisplay:10.37,2013-10-18 01:13:00,
2013-10-17 18:18:00,57.6,57.6,30.06,SW,225,2.3,0.0,100,0.00,CLR,,0.01,WeatherDisplay:10.37,2013-10-18 01:18:00,
2013-10-17 18:23:00,57.0,57.0,30.06,NW,315,3.5,3.5,100,0.00,CLR,,0.01,WeatherDisplay:10.37,2013-10-18 01:23:00,
2013-10-17 18:28:00,56.7,56.7,30.06,West,270,5.8,5.8,100,0.00,CLR,,0.01,WeatherDisplay:10.37,2013-10-18 01:28:00,
2013-10-17 18:34:00,56.3,56.3,30.06,East,90,1.2,1.2,100,0.00,CLR,,0.01,WeatherDisplay:10.37,2013-10-18 01:34:00,
2013-10-17 18:39:00,55.9,55.9,30.06,West,270,1.2,0.0,100,0.00,CLR,,0.01,WeatherDisplay:10.37,2013-10-18 01:39:00,
2013-10-17 18:44:00,55.4,55.4,30.06,SW,225,1.2,1.2,100,0.00,CLR,,0.01,WeatherDisplay:10.37,2013-10-18 01:44:00,
2013-10-17 18:49:00,55.2,55.2,30.06,SW,225,4.6,4.6,100,0.00,CLR,,0.01,WeatherDisplay:10.37,2013-10-18 01:49:00,
2013-10-17 18:54:00,55.0,55.0,30.06,SE,135,1.2,0.0,100,0.00,CLR,,0.01,WeatherDisplay:10.37,2013-10-18 01:54:00,
2013-10-17 18:59:00,54.7,54.7,30.06,South,180,1.2,0.0,100,0.00,CLR,,0.01,WeatherDisplay:10.37,2013-10-18 01:59:00,
2013-10-17 19:04:00,54.3,54.3,30.06,NW,315,1.2,0.0,100,0.00,CLR,,0.01,WeatherDisplay:10.37,2013-10-18 02:04:00,
2013-10-17 19:09:00,53.8,53.8,30.06,South,180,1.2,0.0,100,0.00,CLR,,0.01,WeatherDisplay:10.37,2013-10-18 02:09:00,
2013-10-17 19:14:00,53.4,53.4,30.06,SW,225,1.2,1.2,100,0.00,CLR,,0.01,WeatherDisplay:10.37,2013-10-18 02:14:00,
2013-10-17 19:19:00,52.9,52.9,30.06,SW,225,1.2,1.2,100,0.00,CLR,,0.01,WeatherDisplay:10.37,2013-10-18 02:19:00,
2013-10-17 19:24:00,52.5,52.5,30.06,SW,225,1.2,0.0,100,0.00,CLR,,0.01,WeatherDisplay:10.37,2013-10-18 02:24:00,
2013-10-17 19:29:00,52.3,52.3,30.06,SW,225,1.6,1.6,100,0.00,CLR,,0.01,WeatherDisplay:10.37,2013-10-18 02:29:00,
2013-10-17 19:34:00,52.0,52.0,30.06,SW,225,1.2,0.0,100,0.00,CLR,,0.01,WeatherDisplay:10.37,2013-10-18 02:34:00,
2013-10-17 19:39:00,51.6,51.6,30.06,West,270,1.2,0.0,100,0.00,CLR,,0.01,WeatherDisplay:10.37,2013-10-18 02:39:00,
2013-10-17 19:44:00,51.3,51.3,30.07,West,270,1.2,0.0,100,0.00,CLR,,0.01,WeatherDisplay:10.37,2013-10-18 02:44:00,
2013-10-17 19:49:00,50.9,50.9,30.07,SW,225,0.0,0.0,100,0.00,CLR,,0.01,WeatherDisplay:10.37,2013-10-18 02:49:00,
2013-10-17 19:54:00,50.9,50.9,30.07,SW,225,1.2,0.0,100,0.00,CLR,,0.01,WeatherDisplay:10.37,2013-10-18 02:54:00,
2013-10-17 19:59:00,50.5,50.5,30.07,SW,225,1.2,0.0,100,0.00,CLR,,0.01,WeatherDisplay:10.37,2013-10-18 02:59:00,
2013-10-17 20:04:00,50.4,50.4,30.07,SW,225,1.2,0.0,100,0.00,CLR,,0.01,WeatherDisplay:10.37,2013-10-18 03:04:00,
2013-10-17 20:09:00,50.4,50.4,30.07,South,180,1.2,0.0,100,0.00,CLR,,0.01,WeatherDisplay:10.37,2013-10-18 03:09:00,
2013-10-17 20:14:00,50.0,50.0,30.07,SW,225,1.2,0.0,100,0.00,CLR,,0.01,WeatherDisplay:10.37,2013-10-18 03:14:00,
2013-10-17 20:19:00,49.8,49.8,30.07,West,270,0.0,0.0,100,0.00,CLR,,0.01,WeatherDisplay:10.37,2013-10-18 03:19:00,
2013-10-17 20:24:00,49.6,49.6,30.07,SW,225,1.2,0.0,100,0.00,CLR,,0.01,WeatherDisplay:10.37,2013-10-18 03:24:00,
2013-10-17 20:29:00,49.3,49.3,30.07,SW,225,0.0,0.0,100,0.00,CLR,,0.01,WeatherDisplay:10.37,2013-10-18 03:29:00,
2013-10-17 20:34:00,49.1,49.1,30.07,SW,225,0.0,0.0,100,0.00,CLR,,0.01,WeatherDisplay:10.37,2013-10-18 03:34:00,
2013-10-17 20:39:00,48.7,48.7,30.07,SW,225,0.0,0.0,100,0.00,CLR,,0.01,WeatherDisplay:10.37,2013-10-18 03:39:00,
2013-10-17 20:44:00,48.4,48.4,30.07,SW,225,0.0,0.0,100,0.00,CLR,,0.01,WeatherDisplay:10.37,2013-10-18 03:44:00,
2013-10-17 20:49:00,48.2,48.2,30.07,SW,225,0.0,0.0,100,0.00,CLR,,0.01,WeatherDisplay:10.37,2013-10-18 03:49:00,
2013-10-17 20:54:00,48.0,48.0,30.07,SW,225,0.0,0.0,100,0.00,CLR,,0.01,WeatherDisplay:10.37,2013-10-18 03:54:00,
2013-10-17 20:59:00,48.0,48.0,30.06,SW,225,1.2,0.0,100,0.00,CLR,,0.01,WeatherDisplay:10.37,2013-10-18 03:59:00,
2013-10-17 21:01:00,47.8,47.8,30.07,SW,225,1.2,0.0,100,0.00,CLR,,0.01,WeatherDisplay:10.37,2013-10-18 04:01:00,
2013-10-17 21:02:00,47.8,47.8,30.07,SW,225,1.2,0.0,100,0.00,CLR,,0.01,WeatherDisplay:10.37,2013-10-18 04:02:00,
2013-10-17 21:03:00,47.7,47.7,30.07,SW,225,0.0,0.0,100,0.00,CLR,,0.01,WeatherDisplay:10.37,2013-10-18 04:03:00,
2013-10-17 21:08:00,47.5,47.5,30.07,SW,225,0.0,0.0,100,0.00,CLR,,0.01,WeatherDisplay:10.37,2013-10-18 04:08:00,
2013-10-17 21:09:00,47.5,47.5,30.07,SW,225,0.0,0.0,100,0.00,CLR,,0.01,WeatherDisplay:10.37,2013-10-18 04:09:00,
2013-10-17 21:14:00,47.1,47.1,30.07,SW,225,0.0,0.0,100,0.00,CLR,,0.01,WeatherDisplay:10.37,2013-10-18 04:14:00,
2013-10-17 21:19:00,46.8,46.8,30.06,SW,225,0.0,0.0,100,0.00,CLR,,0.01,WeatherDisplay:10.37,2013-10-18 04:19:00,
2013-10-17 21:24:00,46.6,46.6,30.06,SW,225,1.2,0.0,100,0.00,CLR,,0.01,WeatherDisplay:10.37,2013-10-18 04:24:00,
2013-10-17 21:29:00,46.6,46.6,30.06,SW,225,0.0,0.0,100,0.00,CLR,,0.01,WeatherDisplay:10.37,2013-10-18 04:29:00,
2013-10-17 21:34:00,46.2,46.2,30.06,SW,225,0.0,0.0,100,0.00,,,0.01,WeatherDisplay:10.37,2013-10-18 04:34:00,
2013-10-17 21:39:00,46.2,46.2,30.06,SW,225,0.0,0.0,100,0.00,,,0.01,WeatherDisplay:10.37,2013-10-18 04:39:00,
2013-10-17 21:44:00,45.9,45.9,30.06,SW,225,0.0,0.0,100,0.00,,,0.01,WeatherDisplay:10.37,2013-10-18 04:44:00,
2013-10-17 21:49:00,45.3,45.3,30.06,SW,225,0.0,0.0,100,0.00,,,0.01,WeatherDisplay:10.37,2013-10-18 04:49:00,
2013-10-17 21:54:00,45.1,45.1,30.06,SW,225,0.0,0.0,100,0.00,,,0.01,WeatherDisplay:10.37,2013-10-18 04:54:00,
2013-10-17 21:59:00,45.1,45.1,30.06,SW,225,0.0,0.0,100,0.00,,,0.01,WeatherDisplay:10.37,2013-10-18 04:59:00,
2013-10-17 22:04:00,45.0,45.0,30.06,SW,225,0.0,0.0,100,0.00,,,0.01,WeatherDisplay:10.37,2013-10-18 05:04:00,
2013-10-17 22:09:00,45.0,45.0,30.06,SW,225,0.0,0.0,100,0.00,,,0.01,WeatherDisplay:10.37,2013-10-18 05:09:00,
2013-10-17 22:14:00,45.0,45.0,30.06,South,180,0.0,0.0,100,0.00,,,0.01,WeatherDisplay:10.37,2013-10-18 05:14:00,
2013-10-17 22:19:00,44.6,44.6,30.06,South,180,0.0,0.0,100,0.00,,,0.01,WeatherDisplay:10.37,2013-10-18 05:19:00,
2013-10-17 22:24:00,44.4,44.4,30.06,South,180,1.2,0.0,100,0.00,,,0.01,WeatherDisplay:10.37,2013-10-18 05:24:00,
2013-10-17 22:29:00,44.2,44.2,30.07,SW,225,1.2,1.2,100,0.00,,,0.01,WeatherDisplay:10.37,2013-10-18 05:29:00,
2013-10-17 22:34:00,44.1,44.1,30.06,SW,225,0.0,0.0,100,0.00,,,0.01,WeatherDisplay:10.37,2013-10-18 05:34:00,
2013-10-17 22:39:00,43.7,43.7,30.07,SW,225,0.0,0.0,100,0.00,,,0.01,WeatherDisplay:10.37,2013-10-18 05:39:00,
2013-10-17 22:44:00,43.5,43.5,30.06,SW,225,0.0,0.0,100,0.00,,,0.01,WeatherDisplay:10.37,2013-10-18 05:44:00,
2013-10-17 22:49:00,43.3,43.3,30.07,SW,225,0.0,0.0,100,0.00,,,0.01,WeatherDisplay:10.37,2013-10-18 05:49:00,
2013-10-17 22:54:00,43.5,43.5,30.06,SW,225,0.0,0.0,100,0.00,,,0.01,WeatherDisplay:10.37,2013-10-18 05:54:00,
2013-10-17 22:59:00,43.3,43.3,30.06,South,180,0.0,0.0,100,0.00,,,0.01,WeatherDisplay:10.37,2013-10-18 05:59:00,
2013-10-17 23:04:00,43.2,43.2,30.07,South,180,0.0,0.0,100,0.00,,,0.01,WeatherDisplay:10.37,2013-10-18 06:04:00,
2013-10-17 23:09:00,43.2,43.2,30.06,West,270,0.0,0.0,100,0.00,,,0.01,WeatherDisplay:10.37,2013-10-18 06:09:00,
2013-10-17 23:14:00,43.3,43.3,30.06,West,270,0.0,0.0,100,0.00,,,0.01,WeatherDisplay:10.37,2013-10-18 06:14:00,
2013-10-17 23:19:00,43.2,43.2,30.06,West,270,0.0,0.0,100,0.00,,,0.01,WeatherDisplay:10.37,2013-10-18 06:19:00,
2013-10-17 23:24:00,42.8,42.8,30.06,West,270,0.0,0.0,100,0.00,,,0.01,WeatherDisplay:10.37,2013-10-18 06:24:00,
2013-10-17 23:29:00,42.4,42.4,30.06,West,270,0.0,0.0,100,0.00,,,0.01,WeatherDisplay:10.37,2013-10-18 06:29:00,
2013-10-17 23:34:00,42.3,42.3,30.06,SW,225,1.2,0.0,100,0.00,,,0.01,WeatherDisplay:10.37,2013-10-18 06:34:00,
2013-10-17 23:39:00,42.3,42.3,30.06,SW,225,1.2,0.0,100,0.00,,,0.01,WeatherDisplay:10.37,2013-10-18 06:39:00,
2013-10-17 23:44:00,42.3,42.3,30.06,SW,225,0.0,0.0,100,0.00,,,0.01,WeatherDisplay:10.37,2013-10-18 06:44:00,
2013-10-17 23:49:00,42.1,42.1,30.06,SW,225,0.0,0.0,100,0.00,,,0.01,WeatherDisplay:10.37,2013-10-18 06:49:00,
2013-10-17 23:54:00,42.1,42.1,30.06,SW,225,0.0,0.0,100,0.00,,,0.01,WeatherDisplay:10.37,2013-10-18 06:54:00,
2013-10-17 23:59:00,41.9,41.9,30.06,SW,225,1.2,0.0,100,0.00,,,0.01,WeatherDisplay:10.37,2013-10-18 06:59:00,